• In Netherlands
  • List of Countries
  • For 7 days
  • Water Temperature
  • Satellite Maps
  • Weather Map
  • Weather Widgets
  • user-avatar
    Login

    Hourly Weather Kabul

    Today, 13 December, Wednesday

    Time Temperature Precipitation Wind Pressure Humidity
    00:00 0°C° 0.1 mm 1 mps 606 mmHg 49%
    01:00 0°C° 0.1 mm 1 mps 606 mmHg 50%
    02:00 0°C° 0.1 mm 1 mps 606 mmHg 51%
    03:00 -1°C° 0.1 mm 1 mps 606 mmHg 53%
    04:00 -1°C° 0.1 mm 1 mps 606 mmHg 56%
    05:00 -3°C° 0 mm 2 mps 605 mmHg 56%
    06:00 -1°C° 0 mm 1 mps 606 mmHg 56%
    07:00 -1°C° 0 mm 1 mps 606 mmHg 55%
    08:00 -1°C° 0 mm 1 mps 606 mmHg 55%
    09:00 -1°C° 0 mm 1 mps 606 mmHg 53%
    10:00 0°C° 0 mm 1 mps 606 mmHg 50%
    11:00 -1°C° 0 mm 2 mps 607 mmHg 48%
    12:00 -1°C° 0 mm 2 mps 606 mmHg 47%
    13:00 +1°C° 0 mm 2 mps 606 mmHg 45%
    14:00 +1°C° 0 mm 2 mps 606 mmHg 44%
    15:00 +1°C° 0 mm 2 mps 606 mmHg 46%
    16:00 -1°C° 0 mm 2 mps 606 mmHg 47%
    17:00 -1°C° 0 mm 2 mps 606 mmHg 49%
    18:00 -2°C° 0 mm 2 mps 606 mmHg 50%
    19:00 0°C° 0 mm 1 mps 606 mmHg 51%
    20:00 -1°C° 0 mm 1 mps 606 mmHg 53%
    21:00 -1°C° 0 mm 1 mps 606 mmHg 52%
    22:00 -2°C° 0 mm 1 mps 606 mmHg 52%
    23:00 -2°C° 0 mm 1 mps 606 mmHg 52%

    Tomorrow, 14 December, Thursday

    Time Temperature Precipitation Wind Pressure Humidity
    00:00 -2°C° 0 mm 1 mps 606 mmHg 52%
    01:00 -3°C° 0 mm 1 mps 606 mmHg 52%
    02:00 -3°C° 0 mm 1 mps 606 mmHg 52%
    03:00 -3°C° 0 mm 1 mps 606 mmHg 52%
    04:00 -3°C° 0 mm 1 mps 606 mmHg 52%
    05:00 -3°C° 0 mm 1 mps 606 mmHg 52%
    06:00 -5°C° 0 mm 2 mps 607 mmHg 52%
    07:00 -5°C° 0 mm 2 mps 607 mmHg 51%
    08:00 -5°C° 0 mm 2 mps 607 mmHg 50%
    09:00 -5°C° 0 mm 2 mps 608 mmHg 48%
    10:00 -4°C° 0 mm 2 mps 608 mmHg 46%
    11:00 -3°C° 0 mm 2 mps 609 mmHg 43%
    12:00 -3°C° 0 mm 2 mps 608 mmHg 43%
    13:00 -4°C° 0 mm 3 mps 608 mmHg 43%
    14:00 -2°C° 0 mm 3 mps 608 mmHg 43%
    15:00 -4°C° 0 mm 3 mps 608 mmHg 45%
    16:00 -3°C° 0 mm 2 mps 608 mmHg 47%
    17:00 -4°C° 0 mm 2 mps 608 mmHg 49%
    18:00 -4°C° 0 mm 2 mps 608 mmHg 51%
    19:00 -4°C° 0 mm 2 mps 608 mmHg 52%
    20:00 -5°C° 0 mm 2 mps 608 mmHg 54%
    21:00 -5°C° 0 mm 2 mps 608 mmHg 54%
    22:00 -3°C° 0 mm 1 mps 608 mmHg 55%
    23:00 -3°C° 0 mm 1 mps 608 mmHg 55%

    Day after tomorrow, 15 December, Friday

    Time Temperature Precipitation Wind Pressure Humidity
    00:00 -4°C° 0 mm 1 mps 608 mmHg 57%
    01:00 -4°C° 0 mm 1 mps 608 mmHg 58%
    02:00 -4°C° 0 mm 1 mps 608 mmHg 59%
    03:00 -6°C° 0 mm 1 mps 608 mmHg 59%
    04:00 -6°C° 0 mm 1 mps 608 mmHg 59%
    05:00 -6°C° 0 mm 1 mps 608 mmHg 59%
    06:00 -6°C° 0 mm 1 mps 608 mmHg 58%
    07:00 -6°C° 0 mm 1 mps 609 mmHg 56%
    08:00 -6°C° 0 mm 1 mps 609 mmHg 54%
    09:00 -3°C° 0 mm 1 mps 610 mmHg 48%
    10:00 -2°C° 0 mm 1 mps 610 mmHg 41%
    11:00 -1°C° 0 mm 1 mps 610 mmHg 35%
    12:00 -2°C° 0 mm 2 mps 610 mmHg 34%
    13:00 -2°C° 0 mm 2 mps 610 mmHg 32%
    14:00 -1°C° 0 mm 2 mps 609 mmHg 30%
    15:00 -1°C° 0 mm 2 mps 609 mmHg 31%
    16:00 -2°C° 0 mm 2 mps 609 mmHg 32%
    17:00 -2°C° 0 mm 2 mps 609 mmHg 33%
    18:00 -3°C° 0 mm 2 mps 610 mmHg 34%
    19:00 -1°C° 0 mm 1 mps 610 mmHg 35%
    20:00 -2°C° 0 mm 1 mps 610 mmHg 36%
    21:00 -2°C° 0 mm 1 mps 610 mmHg 37%
    22:00 -2°C° 0 mm 1 mps 610 mmHg 38%
    23:00 -2°C° 0 mm 1 mps 610 mmHg 38%

    16 December, Saturday

    Time Temperature Precipitation Wind Pressure Humidity
    00:00 -3°C° 0 mm 1 mps 609 mmHg 39%
    01:00 -3°C° 0 mm 1 mps 609 mmHg 39%
    02:00 -3°C° 0 mm 1 mps 609 mmHg 40%
    03:00 -3°C° 0 mm 1 mps 609 mmHg 41%
    04:00 -3°C° 0 mm 1 mps 609 mmHg 42%
    05:00 -3°C° 0 mm 1 mps 609 mmHg 43%
    06:00 -3°C° 0 mm 1 mps 609 mmHg 43%
    07:00 -3°C° 0 mm 1 mps 609 mmHg 43%
    08:00 -2°C° 0 mm 1 mps 610 mmHg 43%
    09:00 0°C° 0 mm 1 mps 610 mmHg 39%
    10:00 +1°C° 0 mm 1 mps 611 mmHg 35%
    11:00 +3°C° 0 mm 1 mps 611 mmHg 31%
    12:00 +4°C° 0 mm 1 mps 611 mmHg 30%
    13:00 +4°C° 0 mm 1 mps 611 mmHg 29%
    14:00 +5°C° 0 mm 1 mps 610 mmHg 28%
    15:00 +4°C° 0 mm 1 mps 610 mmHg 30%
    16:00 +4°C° 0 mm 1 mps 610 mmHg 32%
    17:00 +3°C° 0 mm 1 mps 610 mmHg 34%
    18:00 +2°C° 0 mm 1 mps 610 mmHg 35%
    19:00 +2°C° 0 mm 1 mps 611 mmHg 37%
    20:00 +1°C° 0 mm 1 mps 611 mmHg 38%
    21:00 +1°C° 0 mm 1 mps 611 mmHg 39%
    22:00 +1°C° 0 mm 1 mps 611 mmHg 40%
    23:00 0°C° 0 mm 1 mps 611 mmHg 40%

    17 December, Sunday

    Time Temperature Precipitation Wind Pressure Humidity
    00:00 0°C° 0 mm 1 mps 611 mmHg 41%
    01:00 0°C° 0 mm 1 mps 611 mmHg 42%
    02:00 0°C° 0 mm 1 mps 610 mmHg 42%
    03:00 0°C° 0 mm 1 mps 610 mmHg 43%
    04:00 0°C° 0 mm 1 mps 610 mmHg 43%
    05:00 -1°C° 0 mm 1 mps 610 mmHg 43%
    06:00 0°C° 0 mm 1 mps 610 mmHg 43%
    07:00 0°C° 0 mm 1 mps 611 mmHg 42%
    08:00 0°C° 0 mm 1 mps 611 mmHg 42%
    09:00 +2°C° 0 mm 1 mps 612 mmHg 37%
    10:00 +4°C° 0 mm 1 mps 612 mmHg 32%
    11:00 +6°C° 0 mm 1 mps 613 mmHg 27%
    12:00 +7°C° 0 mm 1 mps 612 mmHg 26%
    13:00 +7°C° 0 mm 1 mps 612 mmHg 25%
    14:00 +8°C° 0 mm 1 mps 612 mmHg 25%
    15:00 +7°C° 0 mm 1 mps 611 mmHg 27%
    16:00 +6°C° 0 mm 1 mps 611 mmHg 30%
    17:00 +5°C° 0 mm 1 mps 611 mmHg 32%
    18:00 +4°C° 0 mm 1 mps 611 mmHg 33%
    19:00 +4°C° 0 mm 1 mps 611 mmHg 34%
    20:00 +3°C° 0 mm 1 mps 611 mmHg 35%
    21:00 +3°C° 0 mm 1 mps 611 mmHg 35%
    22:00 +3°C° 0 mm 1 mps 611 mmHg 36%
    23:00 +3°C° 0 mm 1 mps 611 mmHg 36%

    18 December, Monday

    Time Temperature Precipitation Wind Pressure Humidity
    00:00 +2°C° 0 mm 1 mps 611 mmHg 36%
    01:00 +2°C° 0 mm 1 mps 611 mmHg 37%
    02:00 +2°C° 0 mm 1 mps 611 mmHg 37%
    03:00 +2°C° 0 mm 1 mps 610 mmHg 38%
    04:00 +1°C° 0 mm 1 mps 610 mmHg 39%
    05:00 +1°C° 0 mm 1 mps 610 mmHg 40%
    06:00 +1°C° 0 mm 1 mps 610 mmHg 40%
    07:00 +2°C° 0 mm 1 mps 610 mmHg 40%
    08:00 +2°C° 0 mm 1 mps 611 mmHg 40%
    09:00 +2°C° 0 mm 2 mps 611 mmHg 37%
    10:00 +4°C° 0 mm 2 mps 612 mmHg 34%
    11:00 +5°C° 0 mm 2 mps 612 mmHg 31%
    12:00 +6°C° 0 mm 2 mps 612 mmHg 30%
    13:00 +6°C° 0 mm 2 mps 611 mmHg 29%
    14:00 +7°C° 0 mm 2 mps 611 mmHg 28%
    15:00 +6°C° 0 mm 2 mps 611 mmHg 30%
    16:00 +6°C° 0 mm 2 mps 610 mmHg 31%
    17:00 +5°C° 0 mm 2 mps 610 mmHg 33%
    18:00 +4°C° 0 mm 2 mps 610 mmHg 34%
    19:00 +4°C° 0 mm 2 mps 610 mmHg 35%
    20:00 +3°C° 0 mm 2 mps 611 mmHg 36%
    21:00 +3°C° 0 mm 2 mps 611 mmHg 37%
    22:00 +3°C° 0 mm 2 mps 611 mmHg 37%
    23:00 +2°C° 0 mm 2 mps 610 mmHg 37%
    Show more